RH
91 91 82 79 91 90 92 98 97 93 86 96 96 95 96 92 95 94 67 77 91 92 89 87 88 86 85 84 82 89 92 92 83 87 88 90 92 91 92 84 82 84 97
85 91 87 80 85 92 88 98 97 94 73 84 91 89 90 93 96 90 90 94 97 92 91 89 89 88 88 89 91 94 96 82 76 74 81 89 88 92 85 79 76 85 95
85 92 91 82 82 85 88 88 85 87 80 56 76 77 71 68 81 94 93 92 95 94 91 90 90 89 89 91 95 96 96 88 81 79 75 94 90 88 88 77 76 79 83
82 81 86 84 81 80 82 85 81 80 78 64 49 80 90 92 80 83 85 91 96 95 95 93 93 94 94 95 96 94 75 79 78 73 86 99 95 84 83 84 79 84 80
84 83 86 84 82 80 80 86 79 81 78 78 46 79 90 91 88 90 90 94 81 82 82 95 96 97 96 92 95 73 71 76 70 76 82 88 88 86 85 81 82 81 79
95 96 92 84 82 80 79 84 80 79 80 78 64 54 82 91 90 91 93 85 66 53 53 92 96 96 93 86 78 70 71 78 75 76 82 89 87 92 85 84 77 76 83
95 99 90 83 83 82 78 80 82 80 84 82 77 42 76 91 86 84 86 78 66 51 61 80 94 94 86 79 74 72 71 76 77 76 83 88 88 96 86 84 86 84 84
92 97 90 88 84 80 78 79 82 84 87 88 84 56 56 83 90 82 83 78 66 56 55 58 77 80 79 77 72 73 74 74 74 76 76 82 88 95 87 89 89 88 84
82 93 95 92 89 90 86 82 81 84 88 90 88 81 61 68 86 84 84 80 71 62 56 46 59 76 78 77 73 72 73 75 77 80 82 81 80 94 98 97 93 89 87
43 63 75 94 94 91 90 88 87 85 81 87 87 86 70 79 75 86 86 84 79 75 68 55 50 60 76 78 74 75 76 76 75 72 77 75 85 92 97 97 96 95 96
25 31 40 50 65 81 89 89 88 86 89 85 86 90 77 83 89 81 89 87 84 82 78 66 52 48 58 73 74 74 76 75 74 73 74 81 92 94 96 98 97 97 92
21 20 22 28 33 35 42 61 81 90 85 87 86 89 89 80 89 91 84 89 89 89 88 80 70 58 54 55 67 71 73 74 74 74 74 74 82 95 96 97 92 84 76
23 21 20 20 20 22 24 26 32 51 85 87 86 92 96 91 87 91 91 87 90 94 94 91 83 73 59 50 51 65 71 72 72 72 72 74 76 93 95 97 81 74 74
22 20 20 21 21 21 22 21 21 24 34 71 92 93 92 95 94 89 91 91 93 92 96 94 90 80 69 57 47 49 64 71 71 70 69 72 74 85 93 97 95 74 74
18 18 17 18 18 19 19 19 19 20 22 28 38 56 89 99 99 97 92 92 93 94 96 94 95 88 82 70 55 48 49 65 69 69 68 71 72 73 88 94 96 96 89
22 20 19 18 18 20 19 20 21 22 20 21 22 27 38 67 99 99 99 100 99 97 94 95 96 92 88 80 68 54 46 48 65 66 66 64 69 71 72 88 94 95 96
27 26 22 20 19 20 21 22 26 30 30 28 26 22 23 30 42 82 100 99 99 99 100 98 99 98 93 89 83 69 56 52 48 55 61 59 62 69 72 71 94 96 96
44 41 38 33 25 21 22 25 31 33 34 34 33 31 27 24 26 32 57 96 100 99 99 100 100 100 99 95 90 80 68 56 62 58 56 56 58 61 69 69 69 73 86
48 47 43 43 42 42 37 36 36 37 37 35 34 33 33 32 28 28 29 51 78 100 100 100 100 100 100 100 98 93 82 67 54 61 67 63 60 57 60 65 66 66 68
49 46 45 43 40 42 42 43 42 41 38 36 36 36 37 38 36 34 29 28 43 80 98 100 100 100 100 100 100 99 90 80 66 60 62 67 65 60 59 58 62 65 64
50 53 52 52 45 50 50 51 49 52 49 47 44 44 42 41 42 40 37 32 29 35 58 98 98 100 100 100 100 100 99 91 80 73 69 70 67 65 61 57 58 62 59
68 67 68 70 68 66 69 65 68 65 59 53 50 46 47 47 46 46 43 39 35 34 46 71 91 99 100 100 98 99 98 86 81 75 73 70 68 66 65 60 57 59 60
72 73 74 74 76 77 76 77 77 79 78 75 64 59 55 55 54 50 49 46 42 40 55 57 71 94 98 98 98 93 98 94 77 69 70 68 67 67 65 62 60 60 60
72 76 78 77 78 79 81 81 84 91 89 84 79 76 72 69 66 60 53 50 48 44 46 54 60 86 94 98 100 100 92 76 82 83 68 66 71 74 71 67 63 61 61
74 80 82 84 86 84 85 87 82 94 94 92 91 87 79 73 68 68 60 55 52 48 49 50 54 67 86 98 93 99 100 98 95 90 86 75 66 63 65 68 70 66 68
74 75 79 84 89 90 91 90 88 89 93 93 95 96 86 71 65 65 66 60 56 55 52 51 58 65 73 84 95 94 95 95 97 97 97 90 87 80 82 80 70 64 59
Wind_Speed
5 7 7 7 9 7 8 9 9 8 10 10 9 8 9 10 11 10 11 14 13 12 11 12 12 13 14 14 13 13 13 16 14 14 17 17 18 19 20 19 18 16 15
2 7 9 7 6 7 6 9 8 8 8 9 9 9 8 8 9 9 10 12 12 11 11 12 13 14 14 14 15 15 14 14 13 13 14 16 17 17 17 17 18 15 17
2 3 9 9 8 7 7 7 6 7 6 7 9 9 8 7 7 7 8 9 12 12 12 12 12 14 15 15 14 15 14 13 13 13 15 15 17 17 17 16 16 15 15
5 3 10 10 10 7 7 9 5 5 3 5 6 8 7 3 5 5 7 9 11 11 11 12 13 14 14 13 11 9 11 11 11 10 11 10 16 15 14 14 14 15 15
3 3 10 11 10 8 7 9 6 5 2 4 3 6 4 5 7 6 10 15 10 10 10 12 13 13 12 9 8 7 7 9 10 11 12 13 13 13 13 13 13 13 15
3 5 8 9 8 7 7 10 8 4 4 0 2 6 5 6 7 10 12 10 7 6 7 11 12 12 11 9 7 6 7 9 10 10 11 12 10 13 12 11 11 11 12
6 3 6 7 7 7 7 9 9 8 8 3 0 5 6 6 7 9 10 6 5 5 6 8 10 10 10 8 6 6 8 7 9 9 10 12 10 12 11 10 9 10 10
11 4 5 3 2 4 5 7 10 10 7 6 3 3 6 6 7 7 8 5 5 5 5 6 8 10 9 8 6 5 7 7 6 6 8 8 8 9 8 9 9 8 8
13 7 5 4 4 2 2 5 7 9 9 8 5 4 6 7 8 7 8 7 7 6 5 6 8 9 10 8 5 4 8 7 4 7 8 7 6 7 7 7 7 7 7
11 12 11 5 2 1 2 5 6 8 10 9 8 7 7 8 9 9 9 9 9 7 7 6 8 10 11 9 7 5 7 6 5 6 7 5 7 7 6 6 7 6 6
9 10 9 8 7 6 4 6 8 10 10 12 10 8 9 11 10 12 12 11 11 11 9 8 8 10 13 12 11 8 8 8 8 7 7 6 6 6 7 6 6 6 5
10 9 9 9 8 7 7 7 8 11 13 13 13 10 11 13 13 14 15 14 14 14 12 11 10 10 12 14 15 13 11 9 11 9 8 8 8 8 8 7 6 6 5
13 13 12 12 12 12 12 11 10 9 10 12 14 13 13 14 15 15 16 17 17 17 16 15 14 14 14 15 16 17 15 13 11 11 11 10 9 9 9 9 8 8 7
16 16 15 14 14 14 14 13 13 12 10 10 12 13 15 16 18 18 19 19 20 20 20 19 19 17 16 16 16 18 19 17 16 13 12 13 11 11 12 11 11 10 9
16 15 14 15 14 14 15 15 14 15 14 13 12 11 13 16 20 22 22 22 23 23 23 23 23 22 21 19 18 19 21 21 20 17 14 15 14 14 14 14 13 12 11
19 20 20 20 18 17 15 14 15 15 15 15 16 15 13 12 15 17 23 26 24 25 26 27 27 26 25 22 21 21 21 23 23 22 19 17 18 17 16 15 15 14 14
17 17 17 18 18 16 15 16 16 16 17 18 17 17 17 16 15 15 18 22 26 27 27 29 30 30 28 27 26 24 23 23 25 25 24 21 20 21 20 18 17 17 16
14 14 14 13 13 14 16 17 17 17 18 18 18 19 19 19 19 18 17 19 25 24 28 30 29 28 31 31 31 29 27 26 25 27 27 25 23 23 24 22 20 20 18
14 16 15 14 12 12 14 17 19 21 21 20 20 20 20 21 22 21 21 20 20 24 27 28 30 31 26 29 33 33 30 28 28 30 30 29 28 26 27 26 24 23 22
18 17 19 19 18 19 20 22 23 25 26 26 26 26 25 24 23 24 25 25 22 21 24 27 29 29 30 29 28 31 33 31 29 31 32 32 31 31 31 29 28 27 25
22 24 25 27 27 26 27 28 28 27 29 30 29 27 26 26 25 25 26 26 26 25 25 24 27 27 27 28 19 21 30 32 32 33 32 33 33 33 34 33 32 30 28
22 24 26 27 29 29 28 29 29 30 33 34 34 34 31 28 27 26 25 26 27 27 27 26 24 22 24 25 13 11 3 10 28 37 37 36 37 36 37 35 36 34 32
22 22 24 26 27 27 28 30 31 30 29 27 30 31 28 24 24 28 28 25 25 25 27 27 27 23 20 22 28 11 2 4 3 14 33 41 40 39 39 38 38 37 37
24 23 24 24 26 28 27 28 29 25 24 23 27 30 27 25 24 24 26 26 26 26 28 29 28 27 25 19 17 28 25 5 3 3 9 20 27 33 39 42 40 38 38
24 22 23 23 24 27 25 25 27 23 24 28 28 27 26 24 23 24 27 26 24 24 25 26 28 28 27 25 20 11 22 22 18 5 7 3 7 19 26 29 32 30 37
20 23 26 26 24 23 24 23 24 26 26 23 22 26 25 25 25 25 25 27 25 24 25 24 24 29 29 26 26 24 20 8 12 11 7 10 11 21 28 29 28 29 32
Wind_Direction
101 165 185 172 155 134 118 109 98 85 84 94 104 107 112 119 119 118 127 127 122 119 116 116 115 114 112 112 105 104 106 98 95 88 90 92 88 88 85 82 83 81 67
2 197 194 189 175 151 122 119 105 91 75 97 108 115 116 118 121 123 130 132 126 122 118 114 116 117 116 112 110 107 100 100 100 95 99 96 93 89 87 81 79 74 68
344 181 201 193 186 172 142 119 83 110 65 97 115 116 116 125 135 136 142 134 128 125 122 120 120 120 117 111 106 105 110 101 99 95 103 104 94 92 92 88 86 82 74
310 230 200 196 190 186 165 142 123 133 73 91 128 126 123 153 177 171 185 148 136 129 127 126 128 127 122 115 105 101 108 110 104 100 99 117 106 93 94 91 91 84 82
286 195 195 194 195 193 184 164 136 175 142 63 131 142 117 105 128 140 142 143 147 139 137 137 140 138 134 128 113 102 114 114 107 111 114 96 101 101 101 98 93 92 91
19 173 180 188 193 197 194 180 152 201 205 341 107 162 138 128 125 136 140 146 147 146 142 145 149 150 149 142 133 122 127 126 119 114 120 112 97 112 104 102 97 96 98
44 164 181 182 195 194 198 190 182 190 203 211 236 171 166 151 156 155 158 156 162 157 149 156 162 162 161 155 142 135 145 142 135 130 129 124 120 123 117 114 109 105 102
51 77 138 165 211 229 210 211 200 206 215 222 234 199 189 176 179 174 184 186 182 176 165 170 177 178 176 169 156 146 159 155 151 156 157 151 132 121 126 126 125 118 112
49 66 92 111 141 164 240 260 244 228 220 218 234 234 211 204 205 205 208 209 206 203 195 185 187 193 192 188 184 171 172 173 170 155 157 154 152 151 143 140 137 136 129
50 51 45 39 52 201 234 250 254 260 253 235 231 234 228 220 219 222 221 226 225 221 216 207 198 200 205 207 209 206 191 188 181 176 186 189 168 173 171 153 151 152 153
29 29 30 36 18 5 312 278 263 254 257 266 249 239 233 225 225 230 232 235 232 232 229 224 217 210 210 216 220 224 217 217 204 194 192 187 185 190 187 182 177 178 183
358 359 350 344 340 338 336 328 311 279 259 255 259 254 248 242 242 238 236 237 239 237 236 238 237 229 223 221 223 228 227 225 217 214 211 215 215 214 211 209 209 206 209
326 322 320 313 307 309 312 314 313 313 299 268 254 253 256 255 249 243 238 239 240 237 237 238 239 239 233 231 229 229 233 231 231 234 229 223 221 219 224 221 226 225 226
314 313 314 310 306 302 300 302 300 295 294 289 283 268 257 260 257 249 245 244 244 241 240 242 243 245 242 238 236 233 235 239 237 244 240 230 231 224 230 232 231 236 237
309 311 314 310 306 299 294 290 286 286 285 282 278 275 271 267 259 257 254 250 248 247 243 246 246 246 246 243 241 241 238 239 242 247 248 240 240 237 230 235 238 237 239
311 307 305 302 297 292 290 293 295 292 288 283 278 276 271 268 263 269 264 258 255 251 249 248 249 249 249 248 247 245 246 243 242 248 250 252 246 244 242 236 239 241 243
320 316 311 306 296 282 279 285 292 298 297 293 288 281 277 275 271 265 268 267 265 256 258 256 252 253 251 250 250 250 248 249 248 248 249 255 255 248 247 247 243 243 244
354 349 341 329 316 288 281 285 286 287 290 292 294 291 285 279 275 274 270 271 266 264 259 257 252 247 248 248 248 249 250 249 252 253 253 254 257 255 249 250 250 250 252
339 336 332 328 318 305 287 280 279 281 282 284 285 289 288 281 275 273 270 268 268 261 258 255 248 246 244 245 249 251 252 251 250 254 256 256 257 258 254 252 253 253 255
328 321 315 311 304 302 294 288 283 280 278 280 281 285 286 285 282 274 268 264 261 265 259 247 243 243 241 245 248 250 254 253 252 254 255 258 260 259 259 257 255 254 256
322 320 317 314 306 307 303 302 297 292 288 284 282 282 281 278 277 276 271 265 260 258 259 261 246 238 237 239 240 243 251 255 254 253 253 256 259 261 262 258 258 257 257
331 331 327 323 316 310 306 300 294 288 284 281 281 280 278 276 275 273 274 269 261 259 256 257 256 240 237 233 222 236 267 246 249 252 251 250 256 257 260 259 259 260 261
331 333 332 329 323 316 310 305 299 292 284 282 282 283 282 283 280 272 271 271 268 260 256 254 256 251 238 234 238 211 219 220 235 239 243 246 249 252 254 257 257 260 261
325 327 327 326 325 320 312 302 295 282 279 280 280 283 285 287 286 276 268 265 265 261 257 251 253 254 248 258 225 225 232 229 203 287 236 243 246 252 257 257 258 261 264
321 317 322 319 314 316 310 299 293 286 283 290 289 285 284 286 289 278 266 262 262 260 261 257 251 249 250 247 245 244 225 234 240 231 269 283 265 256 258 264 266 269 272
326 328 324 318 310 306 297 291 287 286 284 286 284 282 285 288 290 282 268 259 259 261 262 264 260 253 249 249 250 244 243 226 206 216 244 247 254 263 261 274 270 271 269